Tracking 25410 objects as of 21-Jan-2022
HD Live streaming from Space Station
objects crossing your sky now

SOLRAD 3/INJUN 1

Track SOLRAD 3/INJUN 1 now!
10-day predictions
SOLRAD 3/INJUN 1 is classified as:


NORAD ID: 117
Int'l Code: 1961-015B
Perigee: 877.5 km
Apogee: 994.9 km
Inclination: 66.8 °
Period: 103.6 minutes
Semi major axis: 7307 km
RCS: 0.4448 m2 (medium)
Launch date: June 29, 1961
Source: United States (US)
Launch site: AIR FORCE EASTERN TEST RANGE (AFETR)
aabbcc
Your satellite tracking list
Your tracking list is empty




NASA's NSSDC Master Catalog

Two Line Element Set (TLE):
1   117U 61015B   22021.19338162 -.00000037  00000-0  31574-4 0  9997
2   117  66.8141 324.1702 0080311 337.8035  21.9573 13.89878762 71013
Source of the keplerian elements: AFSPC